IRIDIUM 171 (43929 NORAD) Tracking and Keplerian Element Data

This shows tracking and keplerian element data for the satellite.

Feedback or suggestion? Click here.




ElementValue
Catalog43929
NameIRIDIUM 171
Epoch Orbit422
Epoch Day40.95711342
Epoch Year2019
RAAN35.3028
Inclination86.3967
Eccentricity0.0001851
Argument of Perigee88.3763
Mean Anonmoly271.7645
Mean Motion14.34217504
Decay Rate5.3E-07
L11 43929U 19002H 19040.95711342 .00000053 00000-0 12028-4 0 9990
L22 43929 86.3967 35.3028 0001851 88.3763 271.7645 14.34217504 4220

Live tracking and technical data element details for IRIDIUM 171 (NORAD 43929). IRIDIUM 171 can be tracked NOW for your location showing map with azimuth and elevation plus other details from your city location.

Track the satellite on the map from your city or location and see movement details for azimuth, elevation, latitude, longitude, range, height, and movement on the map or in text.







IsCatalogInMostPopularTable: catalog: 43929, numindb: 12
Update: records affected: 1



GetName: 43929 IRIDIUM 171

Hit Count: updated at: Thu, 21 Feb 2019 12:29:39 GMT